Location: Unspecified
(46.1754°N, 0.0000°E)
Time: 08:11:36
(UTC+00:00)

ISS - Visible Passes

Search period start: 18 November 2019 00:00
Search period end: 28 November 2019 00:00
Orbit: 412 x 421 km, 51.6° (Epoch: 18 November)

Date Brightness Start Highest point End Pass type
(mag) Time Alt. Az. Time Alt. Az. Time Alt. Az.
21 Nov -1.7 18:14:30 10° S 18:16:02 18° SSE 18:16:02 18° SSE visible
22 Nov -1.6 17:27:12 10° SSE 17:28:53 13° SE 17:29:52 12° ESE visible
22 Nov -1.1 19:01:48 10° WSW 19:02:47 18° SW 19:02:47 18° SW visible
23 Nov -3.3 18:13:30 10° SW 18:16:31 48° SSE 18:16:31 48° SSE visible
24 Nov -2.7 17:25:24 10° SSW 17:28:24 31° SE 17:30:10 19° E visible
24 Nov -1.2 19:01:44 10° W 19:03:05 22° W 19:03:05 22° W visible
25 Nov -3.8 18:13:10 10° WSW 18:16:32 75° NNW 18:16:40 73° N visible
26 Nov -3.8 17:24:43 10° SW 17:28:04 74° SSE 17:30:11 21° ENE visible
26 Nov -1.1 19:01:53 10° W 19:03:05 19° WNW 19:03:05 19° WNW visible
27 Nov -3.0 18:13:12 10° W 18:16:25 42° NNW 18:16:34 42° N visible
